Weerstation Grootegast  Weerstation Grootegast


15 daagse weersverwachting Leiden (NL)

  • Overzicht
  • Per uur
  • 15 dagen
  • Extra
  • Vergelijk
  • Kaarten
  • Dagkaart
  • Meer »
  • Info
  • Statistieken
  • Directe link
    Temp 6h Neerslag Wind  
 07:42     18:09    Daglengte: 10:27 Vandaag
13:00
11°
8.3 mm
14
19:00
6.8 mm
10
 07:40     18:11    Daglengte: 10:31 Morgen
01:00
 
6
07:00
 
3
13:00
12.1 mm
9
19:00
21.6 mm
12
 07:38     18:13    Daglengte: 10:35 Dinsdag 25 Feb
01:00
 
10
07:00
 
10
13:00
4.9 mm
11
19:00
25.6 mm
6
 07:35     18:15    Daglengte: 10:40 Woensdag 26 Feb
01:00
22.2 mm
7
07:00
54.5 mm
7
Locatie info
Region: Zuid-Holland
Latitude: 52.1536°N
Longitude: 4.4938°E
6 masl
Postcode: 2311 NX
Temp/Neerslag /Baro Onweer/DauwpuntSneeuw
    Temp Baro 1h Neerslag Dauwpunt Wind UV BewolkingSneeuw  
 07:42     18:09    Daglengte: 10:27 Vandaag
11:00
10°
1006.7 hPa 8.3 mm
48%
8.8°
15
Windvlaag: 8 m/s
91%
12:00
11°
1006.9 hPa
82%
8.7°
15
Windvlaag: 7.7 m/s
89%
13:00
11°
1007.3 hPa
81%
8.8°
14
Windvlaag: 6.2 m/s
91%
14:00
10°
1008.4 hPa 3.1 mm
82%
8.6°
12
Windvlaag: 5.9 m/s
89%
15:00
Voelt als: 4.9°
1010.3 hPa 3.7 mm
82%
6.3°
11
Windvlaag: 4.4 m/s
80%
16:00
Voelt als: 4.0°
1012.3 hPa
79%
5.1°
11
Windvlaag: -1 m/s
69%
17:00
Voelt als: 3.0°
1014.5 hPa
57%
3.3°
10
Windvlaag: -2.1 m/s
31%
18:00
Voelt als: 2.7°
1016.3 hPa
14%
2.5°
9
Windvlaag: -2.6 m/s
18%
19:00
Voelt als: 2.6°
1018.1 hPa
21%
1.3°
10
Windvlaag: -1.6 m/s
45%
20:00
Voelt als: 2.5°
1019.3 hPa
30%
-0.0°
9
Windvlaag: -1.3 m/s
30%
21:00
Voelt als: 2.3°
1020.1 hPa
14%
-0.0°
9
Windvlaag: -0.7 m/s
12%
22:00
Voelt als: 2.2°
1021.2 hPa
14%
0.2°
8
Windvlaag: -0.6 m/s
37%
23:00
Voelt als: 2.2°
1021.9 hPa
14%
0.4°
7
Windvlaag: -0.5 m/s
16%
 07:40     18:11    Daglengte: 10:31 Morgen
00:00
Voelt als: 2.2°
1022.3 hPa
14%
0.4°
6
Windvlaag: -0.4 m/s
15%
01:00
Voelt als: 2.2°
1022.7 hPa
14%
0.7°
6
Windvlaag: -0.4 m/s
36%
02:00
Voelt als: 2.3°
1022.8 hPa
14%
1.1°
5
Windvlaag: 0.2 m/s
71%
03:00
Voelt als: 2.5°
1022.6 hPa
14%
1.3°
4
Windvlaag: 0.3 m/s
73%
04:00
Voelt als: 2.7°
1022.2 hPa
14%
1.8°
3
Windvlaag: 0.8 m/s
86%
05:00
Voelt als: 3.1°
1021.8 hPa
14%
1.9°
3
Windvlaag: 1.1 m/s
87%
06:00
Voelt als: 2.9°
1021.3 hPa
33%
2.0°
3
Windvlaag: 1.8 m/s
91%
07:00
Voelt als: 2.6°
1020.4 hPa
80%
2.0°
3
Windvlaag: 2.6 m/s
91%
08:00
Voelt als: 2.0°
1019.4 hPa
82%
1.9°
3
Windvlaag: 2.9 m/s
91%
09:00
Voelt als: 1.2°
1018.0 hPa 3.0 mm
82%
1.6°
5
Windvlaag: 4.2 m/s
91%
10:00
Voelt als: 0.8°
1015.8 hPa
82%
1.3°
6
Windvlaag: 5.3 m/s
91%
11:00
Voelt als: 0.6°
1013.5 hPa 2.9 mm
82%
1.1°
7
Windvlaag: 5 m/s
91%
12:00
Voelt als: 1.2°
1011.4 hPa 3.1 mm
33%
2.5°
7
Windvlaag: 5.7 m/s
91%
13:00
Voelt als: 4.2°
1009.3 hPa 3.1 mm
82%
6.2°
9
Windvlaag: 6.3 m/s
91%
14:00
Voelt als: 4.7°
1007.5 hPa 3.9 mm
82%
6.7°
11
Windvlaag: 7.3 m/s
91%
15:00
Voelt als: 4.5°
1005.8 hPa 4.0 mm
82%
6.6°
12
Windvlaag: 7.2 m/s
91%
16:00
Voelt als: 4.8°
1004.4 hPa 4.1 mm
82%
7.7°
13
Windvlaag: 6.9 m/s
91%
17:00
Voelt als: 4.5°
1003.3 hPa 4.3 mm
82%
7.6°
13
Windvlaag: 7 m/s
91%
18:00
Voelt als: 4.8°
1002.5 hPa 5.2 mm
79%
7.7°
13
Windvlaag: 6.8 m/s
91%
19:00
Voelt als: 4.9°
1002.0 hPa
70%
7.8°
12
Windvlaag: 6.8 m/s
91%
20:00
10°
Voelt als: 5.1°
1001.6 hPa
81%
8.0°
12
Windvlaag: 6.9 m/s
90%
21:00
10°
Voelt als: 5.2°
1001.3 hPa
82%
7.9°
12
Windvlaag: 6.8 m/s
90%
22:00
10°
Voelt als: 5.3°
1001.4 hPa
81%
7.8°
12
Windvlaag: 6.5 m/s
85%
23:00
Voelt als: 4.9°
1001.7 hPa
75%
6.0°
11
Windvlaag: 6 m/s
68%
 07:38     18:13    Daglengte: 10:35 Dinsdag 25 Feb
00:00
Voelt als: 4.2°
1001.8 hPa
18%
4.9°
10
Windvlaag: 5 m/s
48%
01:00
Voelt als: 3.6°
1001.9 hPa
16%
3.5°
10
Windvlaag: 4.1 m/s
42%
02:00
Voelt als: 3.0°
1001.8 hPa
61%
2.3°
9
Windvlaag: 3.6 m/s
14%
03:00
Voelt als: 2.3°
1001.6 hPa
25%
1.9°
10
Windvlaag: 3.3 m/s
16%
04:00
Voelt als: 1.7°
1001.1 hPa
90%
1.5°
10
Windvlaag: 3.4 m/s
30%
05:00
Voelt als: 1.4°
1001.1 hPa
50%
1.2°
10
Windvlaag: 3.2 m/s
16%
06:00
Voelt als: 1.1°
1001.1 hPa
94%
0.8°
10
Windvlaag: 3 m/s
14%
07:00
Voelt als: 0.6°
1001.0 hPa
92%
0.7°
10
Windvlaag: 2.9 m/s
21%
08:00
Voelt als: 0.4°
1000.9 hPa
88%
0.8°
10
Windvlaag: 2.7 m/s
17%
09:00
Voelt als: 0.7°
1001.0 hPa
32%
1.0°
10
Windvlaag: 3 m/s
19%
10:00
Voelt als: 1.0°
1001.0 hPa
33%
1.1°
11
Windvlaag: 2.9 m/s
16%
11:00
Voelt als: 1.5°
1000.9 hPa
35%
0.9°
10
Windvlaag: 3.1 m/s
14%
12:00
Voelt als: 2.0°
1000.8 hPa
35%
0.9°
10
Windvlaag: 2.9 m/s
8%
13:00
Voelt als: 2.1°
1000.7 hPa 4.9 mm
33%
0.1°
11
Windvlaag: 2.7 m/s
38%
14:00
Voelt als: 2.0°
1000.2 hPa 5.1 mm
100%
0.1°
10
Windvlaag: 3.5 m/s
27%
15:00
Voelt als: 2.4°
999.6 hPa 5.1 mm
100%
0.4°
10
Windvlaag: 3.5 m/s
35%
16:00
Voelt als: 2.1°
999.1 hPa 5.2 mm
44%
1.2°
9
Windvlaag: 3.2 m/s
30%
17:00
Voelt als: 2.1°
998.5 hPa 5.0 mm
34%
1.8°
8
Windvlaag: 2.8 m/s
42%
18:00
Voelt als: 1.9°
997.7 hPa 5.1 mm
66%
3.0°
6
Windvlaag: 1.6 m/s
50%
19:00
Voelt als: 1.6°
997.2 hPa
33%
2.4°
6
Windvlaag: 2.7 m/s
69%
20:00
Voelt als: 1.6°
996.5 hPa
94%
3.4°
6
Windvlaag: 2.9 m/s
84%
21:00
Voelt als: 1.0°
995.5 hPa 3.8 mm
100%
3.2°
6
Windvlaag: 2.7 m/s
86%
22:00
Voelt als: 0.7°
994.3 hPa 4.2 mm
100%
3.1°
6
Windvlaag: 2.6 m/s
94%
23:00
Voelt als: 0.5°
993.4 hPa 4.3 mm
100%
2.8°
6
Windvlaag: 2.3 m/s
99%
 07:35     18:15    Daglengte: 10:40 Woensdag 26 Feb
00:00
Voelt als: 0.0°
992.6 hPa 6.0 mm
99%
3.3°
7
Windvlaag: 1.5 m/s
88%
01:00
Voelt als: -0.8°
992.0 hPa 3.8 mm
99%
2.1°
7
Windvlaag: 0.9 m/s
87%
02:00
Voelt als: -1.4°
991.3 hPa 9.2 mm
100%
1.6°
7
Windvlaag: 8.2 m/s
90% warningclass
03:00
Voelt als: -1.5°
991.2 hPa 9.7 mm
100%
1.3°
7
Windvlaag: 10.3 m/s
91%1 cm
04:00
Voelt als: -1.7°
991.1 hPa 10.3 mm
100%
1.1°
7
Windvlaag: 12.9 m/s
89%1 cm
05:00
Voelt als: -2.0°
991.1 hPa
54%
0.7°
7
Windvlaag: 12.6 m/s
79%1 cm
06:00
Voelt als: -2.4°
991.3 hPa 12.5 mm
100%
0.2°
7
Windvlaag: 10.6 m/s
86%3 cm
07:00
Voelt als: -2.5°
991.4 hPa 12.9 mm
100%
-0.1°
7
Windvlaag: 1.5 m/s
83%3 cm
08:00
Voelt als: -1.6°
992.1 hPa 13.0 mm
99%
0.2°
7
Windvlaag: 10.8 m/s
77%3 cm
09:00
Voelt als: -1.2°
992.8 hPa
38%
0.0°
7
Windvlaag: 11.1 m/s
60%3 cm
10:00
Voelt als: -0.7°
993.6 hPa
49%
0.3°
8
Windvlaag: 11.6 m/s
54%2 cm
Temp/Neerslag /Baro Onweer/DauwpuntSneeuw
    Temp Baro Neerslag Dauwpunt Wind BewolkingSneeuw  
 07:42     18:09    Daglengte: 10:27 Vandaag
13:00
11°
1007.3 hPa 8.3 mm 8.8°
14
91%
16:00
Voelt als: 4.0°
1012.3 hPa 6.8 mm 5.1°
11
69%
19:00
Voelt als: 2.6°
1018.1 hPa   1.3°
10
45%
22:00
Voelt als: 2.2°
1021.2 hPa   0.2°
8
37%
 07:40     18:11    Daglengte: 10:31 Morgen
01:00
Voelt als: 2.2°
1022.7 hPa   0.7°
6
36%
04:00
Voelt als: 2.7°
1022.2 hPa   1.8°
3
86%
07:00
Voelt als: 2.6°
1020.4 hPa   2.0°
3
91%
10:00
Voelt als: 0.8°
1015.8 hPa 3.0 mm 1.3°
6
91%
13:00
Voelt als: 4.2°
1009.3 hPa 9.1 mm 6.2°
9
91%
16:00
Voelt als: 4.8°
1004.4 hPa 12.0 mm 7.7°
13
91%
19:00
Voelt als: 4.9°
1002.0 hPa 9.5 mm 7.8°
12
91%
22:00
10°
Voelt als: 5.3°
1001.4 hPa   7.8°
12
85%
 07:38     18:13    Daglengte: 10:35 Dinsdag 25 Feb
01:00
Voelt als: 3.6°
1001.9 hPa   3.5°
10
42%
04:00
Voelt als: 1.7°
1001.1 hPa   1.5°
10
30%
07:00
Voelt als: 0.6°
1001.0 hPa   0.7°
10
21%
10:00
Voelt als: 1.0°
1001.0 hPa   1.1°
11
16%
13:00
Voelt als: 2.1°
1000.7 hPa 4.9 mm 0.1°
11
38%
16:00
Voelt als: 2.1°
999.1 hPa 15.4 mm 1.2°
9
30%
19:00
Voelt als: 1.6°
997.2 hPa 10.2 mm 2.4°
6
69%
22:00
Voelt als: 0.7°
994.3 hPa 8.1 mm 3.1°
6
94%
 07:35     18:15    Daglengte: 10:40 Woensdag 26 Feb
01:00
Voelt als: -0.8°
992.0 hPa 14.1 mm 2.1°
7
87%
04:00
Voelt als: -1.7°
991.1 hPa 29.1 mm 1.1°
7
89%1 cm
07:00
Voelt als: -2.5°
991.4 hPa 25.4 mm -0.1°
7
83%3 cm
10:00
Voelt als: -0.7°
993.6 hPa 13.0 mm 0.3°
8
54%2 cm
13:00
Voelt als: 0.2°
996.0 hPa 40.3 mm 0.5°
9
41%2 cm
16:00
Voelt als: 0.5°
998.4 hPa 37.4 mm -1.4°
7
35%
19:00
Voelt als: 0.5°
999.5 hPa 37.4 mm -2.5°
6
37%
22:00
Voelt als: 0.1°
1001.2 hPa 37.9 mm -0.7°
6
57%
 07:33     18:17    Daglengte: 10:44 Donderdag 27 Feb
01:00
Voelt als: -0.4°
1002.7 hPa 38.3 mm 0.7°
6
77%
04:00
Voelt als: -0.7°
1003.6 hPa 38.3 mm 0.6°
6
50%
07:00
Voelt als: -1.1°
1004.4 hPa 38.3 mm 0.5°
6
24%
10:00
Voelt als: 0.0°
1005.4 hPa 38.3 mm 0.6°
7
23%
13:00
Voelt als: 1.0°
1006.1 hPa 42.3 mm 0.8°
7
23%
16:00
Voelt als: 0.6°
1005.2 hPa 47.6 mm 0.6°
5
56%
19:00
Voelt als: 0.1°
1004.8 hPa 48.0 mm 0.1°
3
89%
22:00
Voelt als: -1.1°
1004.1 hPa 48.1 mm -0.6°
4
90%
 07:31     18:19    Daglengte: 10:48 Vrijdag 28 Feb
01:00
Voelt als: -2.0°
1003.3 hPa 48.2 mm -1.1°
4
91%
04:00
Voelt als: -1.7°
1002.1 hPa 48.2 mm -0.0°
4
87%
07:00
Voelt als: -1.4°
1000.9 hPa 48.2 mm 1.0°
5
83%
10:00
Voelt als: 1.9°
1000.5 hPa 48.2 mm 2.7°
5
87%
13:00
Voelt als: 5.3°
1000.0 hPa 48.2 mm 4.2°
6
92%
16:00
Voelt als: 4.5°
996.7 hPa 48.3 mm 4.9°
6
92%
19:00
Voelt als: 3.6°
993.3 hPa 48.3 mm 5.5°
6
92%
22:00
Voelt als: 4.3°
989.4 hPa 49.8 mm 6.6°
10
92%
 07:29     18:20    Daglengte: 10:51 Zaterdag 29 Feb
01:00
10°
985.6 hPa 53.9 mm 7.7°
13
92%
04:00
Voelt als: 3.2°
982.9 hPa 54.8 mm 5.5°
14
92%
07:00
Voelt als: 0.6°
980.3 hPa 55.0 mm 3.4°
15
92%
10:00
Voelt als: 1.0°
983.7 hPa 57.0 mm 1.7°
14
55%
13:00
Voelt als: 1.3°
987.3 hPa 57.6 mm -0.3°
13
17%
16:00
Voelt als: 0.6°
988.1 hPa 61.4 mm -0.8°
11
55%
19:00
Voelt als: 0.3°
988.8 hPa 64.1 mm -1.5°
10
92%
22:00
Voelt als: -0.7°
992.2 hPa 64.3 mm -0.6°
9
70%
 07:27     18:22    Daglengte: 10:55 Zondag 01 Maa
01:00
Voelt als: -1.8°
995.6 hPa 64.4 mm 0.2°
9
48%
04:00
Voelt als: -1.9°
998.7 hPa 64.6 mm -1.7°
9
47%
07:00
Voelt als: -2.0°
1001.6 hPa 64.9 mm -3.3°
10
47%
10:00
Voelt als: -0.8°
1004.1 hPa   -2.1°
10
62%
13:00
Voelt als: 1.0°
1006.7 hPa 134.4 mm -1.2°
9
77%
19:00
Voelt als: 1.0°
1007.4 hPa 138.8 mm -2.6°
9
53%
 07:24     18:24    Daglengte: 11:00 Maandag 02 Maa
01:00
Voelt als: 0.7°
1006.7 hPa 140.3 mm 2.6°
6
64%
07:00
Voelt als: -0.1°
1006.5 hPa 142.4 mm 2.0°
4
34%
13:00
Voelt als: 5.5°
1005.9 hPa 144.1 mm 3.0°
2
47%
19:00
Voelt als: 3.7°
1003.7 hPa 144.8 mm 2.3°
2
92%
 07:22     18:26    Daglengte: 11:04 Dinsdag 03 Maa
01:00
Voelt als: -1.5°
1000.1 hPa 145.1 mm -1.1°
4
72%
07:00
Voelt als: -2.9°
996.2 hPa 145.1 mm -0.4°
5
92%
13:00
Voelt als: 3.6°
993.0 hPa 145.2 mm 2.8°
5
92%
19:00
Voelt als: 1.7°
991.0 hPa 145.2 mm 3.3°
5
75%
 07:20     18:28    Daglengte: 11:08 Woensdag 04 Maa
01:00
Voelt als: -4.0°
991.9 hPa 145.7 mm -1.3°
9
1%
07:00
Voelt als: 1.6°
999.2 hPa 1.1 mm 1.0°
2
57%
13:00
Voelt als: 3.7°
1001.1 hPa 0.9 mm 1.7°
3
61%
19:00
Voelt als: 4.1°
1001.8 hPa 0.9 mm 2.0°
2
57%
 07:18     18:29    Daglengte: 11:11 Donderdag 05 Maa
01:00
Voelt als: 3.3°
1002.4 hPa 1.2 mm 1.8°
2
54%
07:00
Voelt als: 1.7°
1003.1 hPa 1.6 mm 1.1°
3
56%
13:00
Voelt als: 3.2°
1005.4 hPa 0.9 mm 1.9°
5
55%
19:00
Voelt als: 2.6°
1006.5 hPa 0.8 mm 1.7°
4
53%
 07:15     18:31    Daglengte: 11:16 Vrijdag 06 Maa
01:00
Voelt als: 1.8°
1006.8 hPa 0.7 mm 2.2°
5
53%
07:00
Voelt als: 1.3°
1006.0 hPa 1.3 mm 1.6°
4
51%
13:00
Voelt als: 3.9°
1006.1 hPa 1.5 mm 2.5°
5
60%
19:00
Voelt als: 3.7°
1005.9 hPa 1.6 mm 1.7°
3
59%
 07:13     18:33    Daglengte: 11:20 Zaterdag 07 Maa
01:00
Voelt als: 2.2°
1006.1 hPa 1.7 mm 1.7°
4
60%
07:00
Voelt als: 1.6°
1007.1 hPa 1.3 mm 2.1°
5
54%
13:00
Voelt als: 3.5°
1010.7 hPa 0.8 mm 2.3°
6
59%
19:00
Voelt als: 2.8°
1012.6 hPa 0.8 mm 2.0°
5
51%
 07:11     18:35    Daglengte: 11:24 Zondag 08 Maa
01:00
Voelt als: 1.7°
1014.1 hPa 0.7 mm 1.8°
5
50%
07:00
Voelt als: 2.0°
1012.4 hPa 1.5 mm 1.8°
3
52%
13:00
Voelt als: 4.3°
1011.3 hPa 1.1 mm 2.6°
4
53%
19:00
Voelt als: 3.6°
1010.4 hPa 1.4 mm 2.6°
4
59%
 07:09     18:37    Daglengte: 11:28 Maandag 09 Maa
01:00
Voelt als: 2.1°
1011.3 hPa 1.2 mm 2.3°
5
61%
07:00
Voelt als: 1.9°
1012.0 hPa 0.6 mm 1.7°
4
47%
  CAPE Lifted Index Hail Supercell Tornado SRH 3km CL BTM PRES CL TOP PRES Swiss DWD icon SMHI TS
 07:42     18:09    Daglengte: 10:27 Vandaag
11:00 0 J/kg 6.6 K 0 % 0 % 0 % 0 m²/s² 0 0 6.84 61
12:00 0 J/kg 6.8 K 0 % 0 % 0 % 0 m²/s² 0 0 7.31 61
13:00 10 J/kg 7.6 K 0 % 0 % 0 % 0 m²/s² 0 0 7.93 3
14:00 113 J/kg 9.7 K 0 % 0 % 0 % 0 m²/s² 0 0 12.13 3
15:00 1 J/kg 14.1 K 0 % 0 % 0 % 0 m²/s² 0 0 20.28 61
16:00 50 J/kg 14.8 K 0 % 0 % 0 % 0 m²/s² 0 0 20.95 61
17:00 2 J/kg 18.1 K 0 % 0 % 0 % 0 m²/s² 0 0 24.04 2
18:00 28 J/kg 18.1 K 0 % 0 % 0 % 0 m²/s² 0 0 24.79 2
19:00 91 J/kg 16.7 K 0 % 0 % 0 % 0 m²/s² 0 0 25.07 3
20:00 22 J/kg 18.2 K 0 % 0 % 0 % 0 m²/s² 0 0 26.87 2
21:00 4 J/kg 18.3 K 0 % 0 % 0 % 0 m²/s² 0 0 26.28 3
22:00 0 J/kg 18.5 K 0 % 0 % 0 % 0 m²/s² 0 0 25.91 3
23:00 0 J/kg 18.8 K 0 % 0 % 0 % 0 m²/s² 0 0 25.7 3
 07:40     18:11    Daglengte: 10:31 Morgen
00:00 0 J/kg 19.0 K 0 % 0 % 0 % 0 m²/s² 0 0 25.27 3
01:00 0 J/kg 19.1 K 0 % 0 % 0 % 0 m²/s² 0 0 23.75 2
02:00 0 J/kg 18.6 K 0 % 0 % 0 % 0 m²/s² 0 0 21.51 3
03:00 0 J/kg 18.1 K 0 % 0 % 0 % 0 m²/s² 0 0 20.11 3
04:00 0 J/kg 17.9 K 0 % 0 % 0 % 0 m²/s² 0 0 18.74 3
05:00 0 J/kg 17.7 K 0 % 0 % 0 % 0 m²/s² 0 0 18 3
06:00 0 J/kg 17.7 K 0 % 0 % 0 % 0 m²/s² 0 0 18.03 3
07:00 1 J/kg 14.5 K 0 % 0 % 0 % 0 m²/s² 0 0 15.07 3
08:00 0 J/kg 12.1 K 0 % 0 % 0 % 0 m²/s² 0 0 13.12 61
09:00 0 J/kg 9.9 K 0 % 0 % 0 % 0 m²/s² 0 0 11.58 61
10:00 0 J/kg 6.8 K 0 % 0 % 0 % 0 m²/s² 0 0 9.53 61
11:00 0 J/kg 5.8 K 0 % 0 % 0 % 0 m²/s² 0 0 10.09 3
12:00 0 J/kg 9.7 K 0 % 0 % 0 % 0 m²/s² 0 0 14.74 3
13:00 3 J/kg 10.0 K 0 % 0 % 0 % 0 m²/s² 0 0 13.63 3
14:00 2 J/kg 9.2 K 0 % 0 % 0 % 0 m²/s² 0 0 9.92 63
15:00 2 J/kg 8.0 K 0 % 0 % 0 % 0 m²/s² 0 0 8.12 63
16:00 0 J/kg 6.2 K 0 % 0 % 0 % 0 m²/s² 0 0 6.38 61
17:00 0 J/kg 6.9 K 0 % 0 % 0 % 0 m²/s² 0 0 7.08 61
18:00 0 J/kg 7.1 K 0 % 0 % 0 % 0 m²/s² 0 0 7.31 3
19:00 0 J/kg 6.3 K 0 % 0 % 0 % 0 m²/s² 0 0 6.54 3
20:00 0 J/kg 4.6 K 0 % 0 % 0 % 0 m²/s² 0 0 6.73 3
21:00 40 J/kg 3.6 K 0 % 0 % 0 % 0 m²/s² 0 0 12.93 3
22:00 46 J/kg 5.6 K 0 % 0 % 0 % 0 m²/s² 0 0 14.12 3
23:00 26 J/kg 7.7 K 0 % 0 % 0 % 0 m²/s² 0 0 16.16 3
 07:38     18:13    Daglengte: 10:35 Dinsdag 25 Feb
00:00 18 J/kg 9.2 K 0 % 0 % 0 % 0 m²/s² 0 0 17.27 3
01:00 18 J/kg 9.9 K 0 % 0 % 0 % 0 m²/s² 0 0 17.61 2
02:00 8 J/kg 10.1 K 0 % 0 % 0 % 0 m²/s² 0 0 18.05 3
03:00 19 J/kg 9.5 K 0 % 0 % 0 % 0 m²/s² 0 0 17.06 2
04:00 38 J/kg 9.4 K 0 % 0 % 0 % 0 m²/s² 0 0 15.49 2
05:00 16 J/kg 10.0 K 0 % 0 % 0 % 0 m²/s² 0 0 14.83 2
06:00 42 J/kg 8.8 K 0 % 0 % 0 % 0 m²/s² 0 0 12.04 2
07:00 59 J/kg 7.7 K 0 % 0 % 0 % 0 m²/s² 0 0 10.91 2
08:00 89 J/kg 6.6 K 0 % 0 % 0 % 0 m²/s² 0 0 10.2 2
09:00 96 J/kg 5.1 K 0 % 0 % 0 % 0 m²/s² 0 0 7.56 2
10:00 95 J/kg 4.4 K 0 % 0 % 0 % 0 m²/s² 0 0 6.98 2
11:00 97 J/kg 3.7 K 0 % 0 % 0 % 0 m²/s² 0 0 5.83 2
12:00 144 J/kg 2.9 K 0 % 0 % 0 % 0 m²/s² 0 0 4.85 2
13:00 188 J/kg 2.6 K 0 % 0 % 0 % 0 m²/s² 0 0 4.49 2
14:00 168 J/kg 2.2 K 0 % 0 % 0 % 0 m²/s² 0 0 4.63 2
15:00 175 J/kg 1.4 K 0 % 0 % 0 % 0 m²/s² 0 0 4.13 2
16:00 224 J/kg 0.4 K 0 % 0 % 0 % 0 m²/s² 0 0 2.77 1
17:00 245 J/kg -0.1 K 0 % 0 % 0 % 0 m²/s² 0 0 2.48 1
18:00 235 J/kg -0.2 K 0 % 0 % 0 % 0 m²/s² 0 0 2.17 0
19:00 230 J/kg -0.4 K 0 % 0 % 0 % 0 m²/s² 0 0 2.18 3
20:00 354 J/kg -1.3 K 0 % 0 % 0 % 0 m²/s² 0 0 1.82 3
21:00 372 J/kg -1.6 K 0 % 0 % 0 % 0 m²/s² 0 0 0.74 80
22:00 281 J/kg -1.0 K 0 % 0 % 0 % 0 m²/s² 0 0 1.07 80
23:00 290 J/kg -1.0 K 0 % 0 % 0 % 0 m²/s² 0 0 0.89 80
 07:35     18:15    Daglengte: 10:40 Woensdag 26 Feb
00:00 58 J/kg -0.3 K 0 % 0 % 0 % 0 m²/s² 0 0 0.42 2
01:00 12 J/kg 1.5 K 0 % 0 % 0 % 0 m²/s² 0 0 1.98 3
02:00 3 J/kg 1.2 K 0 % 0 % 0 % 0 m²/s² 0 0 1.74 95
03:00 21 J/kg 0.5 K 0 % 0 % 0 % 0 m²/s² 0 0 1.07 80
04:00 32 J/kg 0.2 K 0 % 0 % 0 % 0 m²/s² 0 0 0.74 85
05:00 1 J/kg 0.5 K 0 % 0 % 0 % 0 m²/s² 0 0 1.19 3
06:00 2 J/kg 1.2 K 0 % 0 % 0 % 0 m²/s² 0 0 1.68 85
07:00 0 J/kg 0.5 K 0 % 0 % 0 % 0 m²/s² 0 0 1.13 85
08:00 376 J/kg -1.5 K 0 % 0 % 0 % 0 m²/s² 0 0 -0.39 85
09:00 211 J/kg -0.8 K 0 % 0 % 0 % 0 m²/s² 0 0 2.41 3
10:00 311 J/kg -1.4 K 0 % 0 % 0 % 0 m²/s² 0 0 1.48 3
Temp Baro Wind Neerslag
  EWN Forecast EWN WRFDA DWD ICON FMI HIRLAM MET Norway GFS
 07:42     18:09    Daglengte: 10:27 Vandaag
13:00 10.6° 1007.3 hPa 14.4 m/s 8.3 mm 10.0° 1007.8 hPa 14.5 m/s 36.5 mm 10.7° 1007.5 hPa 11.1 m/s 6.2 mm 10.6° 1007.2 hPa 16.3 m/s 0.0 mm 11.6° 1006.6 hPa 14.4 m/s 11.2° 1008.3 hPa 15.4 m/s
16:00 8.4° 1012.3 hPa 10.6 m/s 6.8 mm 8.3° 1011.2 hPa 12.8 m/s 39.2 mm 8.6° 1012.2 hPa 7.8 m/s 0.8 mm 9.6° 1010.2 hPa 9.9 m/s 0.0 mm 8.4° 1013.1 hPa 10.6 m/s 9.3° 1011.8 hPa 12.6 m/s
19:00 7.2° 1018.1 hPa 9.7 m/s 0.0 mm 7.4° 1017.0 hPa 10.2 m/s 39.3 mm 7.4° 1017.7 hPa 6.0 m/s 0.0 mm 7.0° 1016.5 hPa 11.0 m/s 0.0 mm 7.3° 1018.7 hPa 9.8 m/s 7.2° 1018.6 hPa 9.5 m/s
22:00 6.6° 1021.2 hPa 8.1 m/s 0.0 mm 6.6° 1019.7 hPa 8.7 m/s 39.3 mm 6.7° 1020.8 hPa 5.5 m/s 0.0 mm 6.7° 1020.4 hPa 9.0 m/s 0.0 mm 6.6° 1021.8 hPa 7.9 m/s 6.7° 1022.0 hPa 7.0 m/s
 07:40     18:11    Daglengte: 10:31 Morgen
01:00 5.9° 1022.7 hPa 5.7 m/s 0.0 mm 6.0° 1021.5 hPa 7.0 m/s 39.3 mm 6.1° 1021.6 hPa 3.6 m/s 0.0 mm 6.1° 1022.1 hPa 6.8 m/s 0.0 mm 5.8° 1023.4 hPa 5.6 m/s 5.8° 1024.1 hPa 5.6 m/s
04:00 5.1° 1022.2 hPa 2.9 m/s 0.0 mm 5.7° 1020.1 hPa 4.2 m/s 39.3 mm 5.6° 1021.1 hPa 2.2 m/s 0.0 mm 5.3° 1022.2 hPa 3.6 m/s 0.0 mm 4.7° 1022.7 hPa 2.5 m/s 5.1° 1022.7 hPa 2.8 m/s
07:00 5.0° 1020.4 hPa 2.8 m/s 0.0 mm 5.7° 1018.8 hPa 4.7 m/s 39.4 mm 5.3° 1018.1 hPa 1.8 m/s 0.0 mm 5.1° 1021.5 hPa 2.9 m/s 0.0 mm 4.8° 1020.9 hPa 2.5 m/s 4.6° 1020.7 hPa 4.2 m/s
10:00 5.0° 1015.8 hPa 6.0 m/s 3.0 mm 3.9° 1013.5 hPa 7.9 m/s 40.2 mm 4.9° 1012.7 hPa 4.6 m/s 0.7 mm 5.8° 1018.2 hPa 6.1 m/s 0.0 mm 5.2° 1016.0 hPa 5.9 m/s 4.5° 1015.0 hPa 6.9 m/s
13:00 8.3° 1009.3 hPa 8.8 m/s 9.1 mm 8.5° 1007.2 hPa 9.4 m/s 42.1 mm 9.4° 1007.3 hPa 9.5 m/s 0.1 mm 5.8° 1011.2 hPa 9.6 m/s 0.0 mm 9.3° 1009.5 hPa 8.2 m/s 9.1° 1009.1 hPa 8.6 m/s
16:00 9.3° 1004.4 hPa 13.0 m/s 12.0 mm 8.6° 1002.3 hPa 13.8 m/s 47.7 mm 9.3° 1002.9 hPa 9.8 m/s 8.6 mm 10.3° 1005.8 hPa 13.9 m/s 0.0 mm 9.5° 1004.5 hPa 13.1 m/s 9.5° 1003.4 hPa 13.2 m/s
19:00 9.4° 1002.0 hPa 12.4 m/s 9.5 mm 8.7° 999.8 hPa 14.3 m/s 66.7 mm 9.7° 1001.5 hPa 9.5 m/s 0.5 mm 9.5° 1003.3 hPa 13.6 m/s 0.0 mm 9.6° 1002.0 hPa 12.3 m/s 9.5° 1000.9 hPa 12.8 m/s
22:00 9.5° 1001.4 hPa 11.5 m/s 0.0 mm 8.8° 998.9 hPa 12.6 m/s 72.4 mm 9.3° 1000.6 hPa 8.1 m/s 0.1 mm 10.0° 1001.7 hPa 12.3 m/s 0.0 mm 10.0° 1001.6 hPa 11.2 m/s 9.2° 1000.5 hPa 11.8 m/s
 07:38     18:13    Daglengte: 10:35 Dinsdag 25 Feb
01:00 8.0° 1001.9 hPa 9.6 m/s 0.0 mm 6.8° 999.8 hPa 12.4 m/s 72.5 mm 7.7° 1001.1 hPa 8.8 m/s 0.0 mm 9.1° 1001.9 hPa 9.9 m/s 0.0 mm 8.3° 1002.2 hPa 8.8 m/s 7.2° 1001.8 hPa 11.7 m/s
04:00 6.6° 1001.1 hPa 9.9 m/s 0.0 mm 6.1° 998.7 hPa 13.4 m/s 72.5 mm 6.8° 1000.1 hPa 9.2 m/s 0.0 mm 6.6° 1001.4 hPa 9.3 m/s 6.3° 1001.8 hPa 11.5 m/s
07:00 5.7° 1001.0 hPa 9.9 m/s 0.0 mm 5.8° 998.3 hPa 14.0 m/s 72.5 mm 5.4° 1000.6 hPa 9.4 m/s 0.0 mm 5.7° 1001.1 hPa 8.5 m/s 5.9° 1001.7 hPa 11.5 m/s
10:00 6.1° 1001.0 hPa 10.6 m/s 0.0 mm 5.6° 998.3 hPa 14.6 m/s 72.6 mm 5.9° 1002.0 hPa 9.9 m/s 0.0 mm 6.3° 1001.0 hPa 9.9 m/s 6.0° 1001.2 hPa 12.2 m/s
13:00 7.1° 1000.7 hPa 10.8 m/s 4.9 mm 6.2° 998.4 hPa 13.5 m/s 72.6 mm 6.8° 1003.1 hPa 9.1 m/s 0.0 mm 7.2° 1000.4 hPa 10.7 m/s 6.6° 1001.2 hPa 11.1 m/s
16:00 6.7° 999.1 hPa 9.2 m/s 15.4 mm 6.6° 996.8 hPa 12.4 m/s 72.6 mm 7.2° 1002.2 hPa 7.7 m/s 0.0 mm 6.7° 998.6 hPa 8.9 m/s 6.6° 999.6 hPa 9.7 m/s
19:00 5.5° 997.2 hPa 6.0 m/s 10.2 mm 6.9° 994.9 hPa 9.6 m/s 72.8 mm 5.4° 999.9 hPa 3.3 m/s 0.0 mm 5.1° 996.7 hPa 5.6 m/s 6.0° 998.1 hPa 7.3 m/s
22:00 5.0° 994.3 hPa 6.4 m/s 8.1 mm 6.0° 991.5 hPa 6.3 m/s 73.2 mm 4.8° 995.3 hPa 6.8 m/s 1.8 mm 4.5° 993.8 hPa 5.0 m/s 5.5° 994.9 hPa 4.0 m/s
 07:35     18:15    Daglengte: 10:40 Woensdag 26 Feb
01:00 4.0° 992.0 hPa 7.1 m/s 14.1 mm 3.7° 988.3 hPa 7.2 m/s 75.5 mm 3.7° 994.6 hPa 6.5 m/s 0.8 mm 3.8° 991.1 hPa 7.0 m/s 4.0° 991.9 hPa 4.4 m/s
04:00 3.3° 991.1 hPa 7.1 m/s 29.1 mm 3.0° 986.3 hPa 9.1 m/s 84.7 mm 3.3° 993.3 hPa 6.0 m/s 1.3 mm 3.4° 991.3 hPa 7.0 m/s 2.0° 990.5 hPa 7.4 m/s
07:00 2.6° 991.4 hPa 6.8 m/s 25.4 mm 2.0° 988.3 hPa 8.4 m/s 108.5 mm 2.2° 993.1 hPa 5.0 m/s 0.6 mm 3.0° 991.5 hPa 7.0 m/s 3.9° 991.5 hPa 5.7 m/s
10:00 4.3° 993.6 hPa 7.8 m/s 13.0 mm 5.7° 992.7 hPa 9.1 m/s 116.5 mm 3.9° 994.0 hPa 5.9 m/s 0.2 mm 4.2° 993.6 hPa 8.0 m/s 5.2° 995.8 hPa 6.8 m/s
13:00 5.3° 996.0 hPa 9.0 m/s 40.3 mm 5.7° 997.1 hPa 11.1 m/s 119.8 mm 4.4° 996.0 hPa 7.8 m/s 0.5 mm 5.4° 995.8 hPa 9.0 m/s 6.3° 1000.4 hPa 8.4 m/s
16:00 5.1° 998.4 hPa 7.3 m/s 37.4 mm 5.0° 997.9 hPa 7.2 m/s 5.9° 1003.0 hPa 8.7 m/s 37.4 mm
19:00 4.8° 999.5 hPa 6.4 m/s 37.4 mm 4.8° 999.0 hPa 6.3 m/s 5.2° 1005.2 hPa 7.2 m/s 37.4 mm
22:00 4.4° 1001.2 hPa 6.1 m/s 37.9 mm 4.3° 1000.6 hPa 6.0 m/s 5.1° 1007.4 hPa 6.8 m/s 37.9 mm
 07:33     18:17    Daglengte: 10:44 Donderdag 27 Feb
01:00 3.9° 1002.7 hPa 5.7 m/s 38.3 mm 3.8° 1002.2 hPa 5.7 m/s 4.6° 1008.5 hPa 6.3 m/s 38.3 mm
04:00 3.7° 1003.6 hPa 6.0 m/s 38.3 mm 3.7° 1003.2 hPa 6.1 m/s 4.1° 1008.2 hPa 4.8 m/s 38.3 mm
07:00 3.6° 1004.4 hPa 6.4 m/s 38.3 mm 3.6° 1004.2 hPa 6.5 m/s 3.7° 1006.2 hPa 5.5 m/s 38.3 mm
10:00 4.6° 1005.4 hPa 6.8 m/s 38.3 mm 4.7° 1005.7 hPa 6.8 m/s 3.4° 1001.6 hPa 7.9 m/s 38.3 mm
13:00 5.5° 1006.1 hPa 7.3 m/s 42.3 mm 5.8° 1007.2 hPa 7.0 m/s 1.8° 993.9 hPa 10.4 m/s 42.3 mm
16:00 4.4° 1005.2 hPa 5.0 m/s 47.6 mm 4.2° 1006.9 hPa 4.8 m/s 6.3° 987.0 hPa 7.7 m/s 47.6 mm
19:00 3.2° 1004.8 hPa 3.3 m/s 48.0 mm 2.7° 1006.5 hPa 2.6 m/s 8.8° 986.7 hPa 11.2 m/s 48.0 mm
22:00 2.4° 1004.1 hPa 3.6 m/s 48.1 mm 2.0° 1005.2 hPa 2.8 m/s 5.8° 992.0 hPa 12.5 m/s 48.1 mm
 07:31     18:19    Daglengte: 10:48 Vrijdag 28 Feb
01:00 1.7° 1003.3 hPa 3.8 m/s 48.2 mm 1.4° 1003.9 hPa 3.0 m/s 5.3° 996.7 hPa 12.3 m/s 48.2 mm
04:00 2.2° 1002.1 hPa 4.3 m/s 48.2 mm 1.9° 1002.3 hPa 3.7 m/s 5.0° 999.8 hPa 10.5 m/s 48.2 mm
07:00 2.7° 1000.9 hPa 4.6 m/s 48.2 mm 2.5° 1000.8 hPa 4.4 m/s 4.6° 1002.0 hPa 7.1 m/s 48.2 mm
10:00 5.6° 1000.5 hPa 5.4 m/s 48.2 mm 5.6° 1000.2 hPa 5.5 m/s 5.5° 1003.3 hPa 4.6 m/s 48.2 mm
13:00 8.6° 1000.0 hPa 6.4 m/s 48.2 mm 8.7° 999.7 hPa 6.6 m/s 7.1° 1003.3 hPa 4.6 m/s 48.2 mm
16:00 7.9° 996.7 hPa 6.2 m/s 48.3 mm 7.9° 996.4 hPa 6.2 m/s 7.5° 1001.1 hPa 5.1 m/s 48.3 mm
19:00 7.1° 993.3 hPa 5.8 m/s 48.3 mm 7.2° 993.0 hPa 5.9 m/s 6.2° 997.1 hPa 4.9 m/s 48.3 mm
22:00 8.5° 989.4 hPa 9.5 m/s 49.8 mm 8.8° 989.2 hPa 9.9 m/s 4.6° 991.5 hPa 6.0 m/s 49.8 mm
 07:29     18:20    Daglengte: 10:51 Zaterdag 29 Feb
01:00 10.0° 985.6 hPa 12.9 m/s 53.9 mm 10.5° 985.5 hPa 13.8 m/s 5.0° 986.5 hPa 3.5 m/s 53.9 mm
04:00 8.3° 982.9 hPa 13.6 m/s 54.8 mm 8.6° 982.8 hPa 14.8 m/s 5.0° 984.1 hPa 0.7 m/s 54.8 mm
07:00 6.5° 980.3 hPa 14.6 m/s 55.0 mm 6.6° 980.1 hPa 15.8 m/s 5.6° 982.8 hPa 1.4 m/s 55.0 mm
10:00 6.7° 983.7 hPa 13.7 m/s 57.0 mm 6.7° 983.9 hPa 14.6 m/s 6.5° 982.4 hPa 4.1 m/s 57.0 mm
13:00 6.8° 987.3 hPa 13.0 m/s 57.6 mm 6.8° 987.6 hPa 13.4 m/s 6.4° 983.7 hPa 8.4 m/s 57.6 mm
16:00 5.9° 988.1 hPa 11.1 m/s 61.4 mm 6.2° 988.2 hPa 11.7 m/s 3.4° 986.4 hPa 4.5 m/s 61.4 mm
19:00 5.5° 988.8 hPa 9.5 m/s 64.1 mm 5.5° 988.8 hPa 9.9 m/s 5.0° 989.0 hPa 5.6 m/s 64.1 mm
22:00 4.5° 992.2 hPa 9.0 m/s 64.3 mm 4.5° 992.3 hPa 9.2 m/s 5.1° 991.5 hPa 6.6 m/s 64.3 mm
 07:27     18:22    Daglengte: 10:55 Zondag 01 Maa
01:00 3.6° 995.6 hPa 8.5 m/s 64.4 mm 3.5° 995.8 hPa 8.5 m/s 4.8° 993.5 hPa 8.9 m/s 64.4 mm
04:00 3.7° 998.7 hPa 9.1 m/s 64.6 mm 3.7° 999.0 hPa 9.0 m/s 3.7° 994.9 hPa 9.9 m/s 64.6 mm
07:00 3.7° 1001.6 hPa 9.7 m/s 64.9 mm 3.9° 1002.2 hPa 9.5 m/s 2.0° 994.6 hPa 11.7 m/s 64.9 mm
10:00 4.7° 1004.1 hPa 10.0 m/s 66.0 mm 5.0° 1005.0 hPa 9.6 m/s 1.4° 994.7 hPa 14.6 m/s 66.0 mm
13:00 5.9° 1006.7 hPa 9.4 m/s 68.4 mm 6.2° 1007.7 hPa 9.7 m/s 2.7° 995.7 hPa 6.2 m/s 68.4 mm
19:00 6.0° 1007.4 hPa 9.4 m/s 69.6 mm 6.1° 1008.3 hPa 9.4 m/s 4.4° 997.9 hPa 9.1 m/s 69.6 mm
 07:24     18:24    Daglengte: 11:00 Maandag 02 Maa
01:00 5.0° 1006.7 hPa 6.5 m/s 70.4 mm 5.1° 1007.4 hPa 6.3 m/s 4.3° 999.2 hPa 8.4 m/s 70.4 mm
07:00 3.6° 1006.5 hPa 4.5 m/s 71.4 mm 3.6° 1007.0 hPa 4.2 m/s 3.8° 1000.5 hPa 7.4 m/s 71.4 mm
13:00 6.9° 1005.9 hPa 2.1 m/s 72.2 mm 7.1° 1006.1 hPa 1.6 m/s 4.8° 1003.5 hPa 8.0 m/s 72.2 mm
19:00 5.2° 1003.7 hPa 2.0 m/s 72.5 mm 5.4° 1003.5 hPa 1.6 m/s 3.4° 1006.4 hPa 6.2 m/s 72.5 mm
 07:22     18:26    Daglengte: 11:04 Dinsdag 03 Maa
01:00 2.4° 1000.1 hPa 4.1 m/s 72.6 mm 2.3° 999.3 hPa 4.2 m/s 2.9° 1009.3 hPa 3.1 m/s 72.6 mm
07:00 1.4° 996.2 hPa 4.6 m/s 72.6 mm 1.4° 995.0 hPa 4.7 m/s 1.4° 1009.3 hPa 2.9 m/s 72.6 mm
13:00 6.8° 993.0 hPa 5.2 m/s 72.6 mm 6.9° 991.8 hPa 5.3 m/s 6.2° 1005.8 hPa 4.1 m/s 72.6 mm
19:00 5.2° 991.0 hPa 4.7 m/s 72.6 mm 5.2° 990.3 hPa 4.5 m/s 4.8° 998.2 hPa 7.1 m/s 72.6 mm
 07:20     18:28    Daglengte: 11:08 Woensdag 04 Maa
01:00 1.9° 991.9 hPa 8.6 m/s 73.0 mm 1.9° 991.9 hPa 8.6 m/s 73.0 mm
07:00 3.9° 999.2 hPa 2.5 m/s 1.1 mm
13:00 6.2° 1001.1 hPa 3.3 m/s 0.9 mm
19:00 5.7° 1001.8 hPa 2.1 m/s 0.9 mm
 07:18     18:29    Daglengte: 11:11 Donderdag 05 Maa
01:00 4.9° 1002.4 hPa 2.0 m/s 1.2 mm
07:00 4.4° 1003.1 hPa 3.1 m/s 1.6 mm
13:00 6.6° 1005.4 hPa 5.2 m/s 0.9 mm
19:00 5.8° 1006.5 hPa 4.3 m/s 0.8 mm
 07:15     18:31    Daglengte: 11:16 Vrijdag 06 Maa
01:00 5.4° 1006.8 hPa 5.0 m/s 0.7 mm
07:00 4.7° 1006.0 hPa 4.5 m/s 1.3 mm
13:00 6.9° 1006.1 hPa 4.8 m/s 1.5 mm
19:00 6.0° 1005.9 hPa 3.0 m/s 1.6 mm
 07:13     18:33    Daglengte: 11:20 Zaterdag 07 Maa
01:00 5.2° 1006.1 hPa 3.9 m/s 1.7 mm
07:00 5.1° 1007.1 hPa 4.7 m/s 1.3 mm
13:00 7.0° 1010.7 hPa 6.0 m/s 0.8 mm
19:00 6.3° 1012.6 hPa 5.3 m/s 0.8 mm
 07:11     18:35    Daglengte: 11:24 Zondag 08 Maa
01:00 5.3° 1014.1 hPa 5.0 m/s 0.7 mm
07:00 4.8° 1012.4 hPa 3.3 m/s 1.5 mm
13:00 7.1° 1011.3 hPa 4.3 m/s 1.1 mm
19:00 6.3° 1010.4 hPa 3.8 m/s 1.4 mm
 07:09     18:37    Daglengte: 11:28 Maandag 09 Maa
01:00 5.5° 1011.3 hPa 4.7 m/s 1.2 mm
07:00 4.9° 1012.0 hPa 3.6 m/s 0.6 mm
FMI Hirlam - 7.5 km EWN WRFDA - 12 km DWD ICON - 7 km GFS - 25 km Basiskaart






























































Updatetijd (Europe/Amsterdam) Resolutie Lengte Stap
FMI Hirlam 06:15, 12:15, 18:15, 00:15 7.5 km 49h 1h
EWN WRFDA 08:45, 14:45, 20:45, 02:45 12 km 73h 1h
DWD ICON 10:45, 16:45, 22:45, 04:45 7 km 75h 1h
GFS 07:00, 13:00, 19:00, 01:00 25 km 237h 3h
30+ mm
25-30 mm
20-25 mm
15-20 mm
10-15 mm
6-10 mm
4-6 mm
2-4 mm
1-2 mm
0.5-1 mm
0.2-0.5 mm
0.1-0.2 mm
30+ mm
25-30 mm
20-25 mm
15-20 mm
10-15 mm
6-10 mm
4-6 mm
2-4 mm
1-2 mm
0.5-1 mm
0.2-0.5 mm
0.1-0.2 mm
Sneeuwval
Natte sneeuw
Hagel
Vorst
30+ mm
25-30 mm
20-25 mm
15-20 mm
10-15 mm
6-10 mm
4-6 mm
2-4 mm
1-2 mm
0.5-1 mm
0.2-0.5 mm
0.1-0.2 mm
Sneeuwval
Natte sneeuw
Hagel
Vorst
Onweer
50 mm
40 mm
30 mm
26 mm
22 mm
18 mm
14 mm
10 mm
9 mm
8 mm
7 mm
6 mm
5 mm
4.5 mm
4 mm
3.5 mm
3 mm
2.5 mm
2 mm
1.5 mm
1 mm
0.8 mm
0.6 mm
0.4 mm
0.2 mm
0.05 mm
35°
30°
25°
20°
15°
10°
-5°
-10°
-15°
-20°
-25°
-30°
-35°
33> m/s
29 m/s
25 m/s
21 m/s
17 m/s
14 m/s
11 m/s
8 m/s
5 m/s
3 m/s
0 m/s
2600 J/kg
2400 J/kg
2200 J/kg
2000 J/kg
1800 J/kg
1600 J/kg
1400 J/kg
1200 J/kg
1000 J/kg
800 J/kg
600 J/kg
400 J/kg
200 J/kg
70 dBZ
65 dBZ
60 dBZ
55 dBZ
50 dBZ
45 dBZ
40 dBZ
35 dBZ
30 dBZ
25 dBZ
20 dBZ
15 dBZ
10 dBZ
5 dBZ
-1 K
-2 K
-3 K
-4 K
-5 K
-6 K
-7 K
-8 K
-9 K
950 m²/s²
900 m²/s²
850 m²/s²
800 m²/s²
750 m²/s²
700 m²/s²
650 m²/s²
600 m²/s²
550 m²/s²
500 m²/s²
450 m²/s²
400 m²/s²
350 m²/s²
300 m²/s²
250 m²/s²
200 m²/s²
150 m²/s²
100 m²/s²
46 m/s
44 m/s
42 m/s
40 m/s
38 m/s
36 m/s
34 m/s
32 m/s
30 m/s
28 m/s
26 m/s
24 m/s
22 m/s
20 m/s
16 m/s
12 m/s
8 m/s
4 m/s
30 m/s
28 m/s
26 m/s
24 m/s
22 m/s
20 m/s
18 m/s
16 m/s
14 m/s
12 m/s
10 m/s
8 m/s
6 m/s
4 m/s
2 m/s
3.0
2.8
2.6
2.4
2.2
2.0
1.8
1.6
1.4
1.2
1.0
0.8
0.6
0.4
0.2
15
14
13
12
11
10
9
8
7
6
5
4
3
2
1
90%
80%
70%
60%
50%
40%
30%
20%
10%
42
40
38
36
34
32
30
28
26
24
22
20
18
16
14
12
90+ cm
80-90 cm
70-80 cm
60-70 cm
50-60 cm
40-50 cm
30-40 cm
20-30 cm
10-20 cm
1-10 cm
Sneeuwval
Natte sneeuw
Regen
>120 mm
115 mm
110 mm
105 mm
100 mm
95 mm
90 mm
85 mm
80 mm
75 mm
70 mm
65 mm
60 mm
55 mm
50 mm
45 mm
45 mm
40 mm
35 mm
30 mm
25 mm
20 mm
15 mm
10 mm
5 mm
0.1 mm
960 hPa
880 hPa
800 hPa
720 hPa
640 hPa
560 hPa
584 gpdm
568 gpdm
552 gpdm
536 gpdm
520 gpdm
504 gpdm
488 gpdm
Extreem zwaar Noodweer Kans op onweer
15% 15% 5% 50% 15%

Dag




Kaart






35°
30°
25°
20°
15°
10°
-5°
-10°
-15°
-20°
-25°
-30°
-35°
33> m/s
29 m/s
25 m/s
21 m/s
17 m/s
14 m/s
11 m/s
8 m/s
5 m/s
3 m/s
0 m/s
Extreem zwaar Noodweer Kans op onweer
15% 15% 5% 50% 15%
>120 mm
115 mm
110 mm
105 mm
100 mm
95 mm
90 mm
85 mm
80 mm
75 mm
70 mm
65 mm
60 mm
55 mm
50 mm
45 mm
45 mm
40 mm
35 mm
30 mm
25 mm
20 mm
15 mm
10 mm
5 mm
0.1 mm
Onweer risico kaarten - De groene en gele kleur geeft de kans op onweer aan binnen 40 km van een punt. Oranje, rood en violet hebben hetzelfde niveau zoals je het ziet op estofex.org waaronder ook de kans op hagel en supercells.

dBZ - dBZ staat voor decibel ten opzichte van Z.

Cape - Convective available potential energy (CAPE), is de totale hoeveelheid energie die een luchtpakketje nodig heeft om zover mogelijk te stijgen in de atmosfeer.

K Index - K-Index wordt berekend door de Vertical Totals (VT) en het verschil tussen de 850 hPa temperatuur en de 700 hPa dauwpuntsdepressie (Tdd 700) bij elkaar op te tellen.

TT Index - Convectie index wordt gebruikt voor het voorspellen van zware buien of onweer.

WRF - The Weather Research and Forecasting (WRF) is een volgende generatie mesoscale numeriek weersvoorspelling systeem ontworpen om zowel de operationele planning als het atmosferisch onderzoek te dienen. WRF is a cooperatie tussen het National Center for Atmospheric Research (NCAR), National Centers for Environmental Prediction (NCEP), Forecast Syst